Simultaneous Nadir Overpasses (SNOs) Predictions

Prediction of SNOs between AURA and NPP Satellite Orbit:

Table of predicted SNOs for the next 14.0 days since TLE Epoch: 10/12/2019
Index Date (AURA) Time (AURA) Lat,Lon (AURA) SZA (AURA ) Date (NPP) Time (NPP) Lat,Lon (NPP) SZA (NPP ) Distance(km) Time Diff (sec)
1 10/13/2019 19:08:13 79.53, 149.87 99.50 10/13/2019 19:08:01 79.53, 149.87 99.51 0.19 12
2 10/13/2019 19:57:34 -79.77, -40.80 80.82 10/13/2019 19:58:39 -79.77, -40.76 80.87 0.92 65
3 10/16/2019 10:35:21 -79.37, 96.99 79.34 10/16/2019 10:34:16 -79.37, 97.00 79.29 0.29 65
4 10/16/2019 11:24:41 79.59, -93.87 100.38 10/16/2019 11:24:54 79.58, -93.96 100.38 1.77 13
5 10/19/2019 02:51:49 -79.42,-146.78 78.48 10/19/2019 02:51:09 -79.42,-146.84 78.43 1.33 40
6 10/19/2019 03:41:09 79.64, 22.36 101.25 10/19/2019 03:41:47 79.63, 22.21 101.25 3.06 38
7 10/21/2019 19:08:16 -79.47, -30.57 77.62 10/21/2019 19:08:01 -79.47, -30.69 77.59 2.49 15
8 10/21/2019 19:57:33 79.79, 139.39 101.95 10/21/2019 19:58:35 79.80, 139.50 101.88 2.39 62
9 10/24/2019 10:35:19 79.42, -82.67 103.35 10/24/2019 10:34:11 79.43, -82.55 103.38 2.66 68




NCC Satellite Simultaneous Nadir Overpasses (SNOs) Prediction Service
